FW0266 Weather Reports


Display with metric or nautical units.
time (UTC)temp
F
wind
direction
speed
MPH
gust
MPH
rain 1hr
in
rain 24hr
in
rain mn
in
humidity
%
barometer
mb
20260904090104 76 134 5.0 12.0 0.00 0.00 0.00 25 1006.3
20260904084555 76 108 6.0 14.0 0.00 0.00 0.00 20 1006.2
20260904083056 76 111 6.0 12.0 0.00 0.00 0.00 19 1006.3
20260904081552 74 101 3.0 8.0 0.00 0.00 0.00 20 1006.3
20260904080050 73 100 3.0 8.0 0.00 0.00 0.00 25 1006.5
20260904074549 73 112 1.0 8.0 0.00 0.00 0.00 28 1006.6
20260904073049 74 139 5.0 10.0 0.00 0.00 0.00 22 1006.5
20260904071557 75 129 2.0 7.0 0.00 0.00 0.00 26 1006.4
20260904070042 74 105 2.0 4.0 0.00 0.00 0.00 31 1006.4
20260904064539 75 139 3.0 8.0 0.00 0.00 0.00 32 1006.2
20260904063040 74 136 3.0 5.0 0.00 0.00 0.00 34 1006.2
20260904061539 75 133 1.0 6.0 0.00 0.00 0.00 35 1006.0
20260904060036 76 102 1.0 5.0 0.00 0.00 0.00 35 1005.7
20260904054540 76 75 0.0 3.0 0.00 0.00 0.00 39 1005.8
20260904053030 76 98 1.0 5.0 0.00 0.00 0.00 42 1005.9
20260904051529 77 106 0.0 5.0 0.00 0.00 0.00 42 1005.9
20260904050027 77 116 0.0 4.0 0.00 0.00 0.00 42 1005.9
20260904044530 77 94 1.0 6.0 0.00 0.00 0.00 41 1006.0
20260904043025 78 103 0.0 4.0 0.00 0.00 0.00 40 1006.0
20260904041522 77 98 0.0 3.0 0.00 0.00 0.00 40 1005.9
20260904040024 76 84 0.0 2.0 0.00 0.00 0.00 38 1006.0
20260904034519 76 70 0.0 4.0 0.00 0.00 0.00 37 1005.9
20260904033019 78 102 0.0 5.0 0.00 0.00 0.00 35 1005.9
20260904031517 78 96 0.0 4.0 0.00 0.00 0.00 31 1005.6
20260904030017 80 149 3.0 8.0 0.00 0.00 0.00 28 1005.6
20260904024516 81 163 5.0 10.0 0.00 0.00 0.00 28 1005.5
20260904023018 81 202 9.0 14.0 0.00 0.00 0.00 26 1005.3
20260904021515 82 180 3.0 7.0 0.00 0.00 0.00 30 1005.4
20260904020015 83 133 7.0 15.0 0.00 0.00 0.00 28 1005.4
20260904014522 85 142 9.0 17.0 0.00 0.00 0.00 27 1005.3
20260904013020 86 143 10.0 19.0 0.00 0.00 0.00 25 1005.3
20260904011527 87 143 12.0 23.0 0.00 0.00 0.00 25 1005.3
20260904010013 88 165 13.0 19.0 0.00 0.00 0.00 24 1005.3
20260904004514 88 166 13.0 26.0 0.00 0.00 0.00 23 1005.4
20260904003013 88 202 12.0 25.0 0.00 0.00 0.00 24 1005.4
20260904001510 89 157 12.0 24.0 0.00 0.00 0.00 26 1005.4
20260904000011 89 169 13.0 24.0 0.00 0.00 0.00 25 1005.5
20260903234508 89 174 14.0 24.0 0.00 0.00 0.00 25 1005.5
20260903233005 89 205 13.0 26.0 0.00 0.00 0.00 24 1005.7
20260903231504 89 176 16.0 29.0 0.00 0.00 0.00 23 1006.0
20260903230004 89 155 14.0 26.0 0.00 0.00 0.00 21 1006.0
20260903224501 90 191 17.0 29.0 0.00 0.00 0.00 19 1006.2
20260903223103 90 165 12.0 21.0 0.00 0.00 0.00 17 1006.3
20260903221600 90 176 15.0 26.0 0.00 0.00 0.00 15 1006.5
20260903220107 90 165 18.0 31.0 0.00 0.00 0.00 15 1006.5
20260903214556 90 197 17.0 25.0 0.00 0.00 0.00 17 1006.6
20260903213055 90 151 17.0 27.0 0.00 0.00 0.00 18 1006.7
20260903211553 89 152 18.0 28.0 0.00 0.00 0.00 18 1006.9
20260903210058 89 179 21.0 29.0 0.00 0.00 0.00 20 1006.9
20260903204551 89 138 18.0 31.0 0.00 0.00 0.00 21 1006.9
20260903203050 89 200 17.0 29.0 0.00 0.00 0.00 20 1007.0
20260903201549 89 168 19.0 28.0 0.00 0.00 0.00 19 1007.3
20260903200047 89 194 14.0 26.0 0.00 0.00 0.00 16 1007.3
20260903194551 90 167 16.0 27.0 0.00 0.00 0.00 14 1007.7
20260903193052 89 161 13.0 22.0 0.00 0.00 0.00 12 1007.8
20260903191548 88 201 14.0 24.0 0.00 0.00 0.00 12 1008.0
20260903190044 88 177 15.0 22.0 0.00 0.00 0.00 13 1008.2
20260903184540 87 193 13.0 24.0 0.00 0.00 0.00 14 1008.4
20260903183040 87 148 16.0 24.0 0.00 0.00 0.00 14 1008.7
20260903181538 87 194 14.0 21.0 0.00 0.00 0.00 15 1008.5
20260903180037 86 149 8.0 22.0 0.00 0.00 0.00 18 1008.7
20260903174534 86 197 15.0 21.0 0.00 0.00 0.00 17 1008.7
20260903173033 85 89 5.0 17.0 0.00 0.00 0.00 19 1008.7
20260903171530 84 96 4.0 12.0 0.00 0.00 0.00 20 1008.8
20260903170032 84 113 7.0 14.0 0.00 0.00 0.00 19 1008.8
20260903164527 83 138 7.0 13.0 0.00 0.00 0.00 20 1008.8
20260903163025 83 138 5.0 17.0 0.00 0.00 0.00 20 1008.7
20260903161523 82 115 10.0 17.0 0.00 0.00 0.00 21 1008.7
20260903160021 82 139 6.0 15.0 0.00 0.00 0.00 22 1008.6
20260903154520 82 133 8.0 15.0 0.00 0.00 0.00 22 1008.6
20260903153018 81 108 6.0 15.0 0.00 0.00 0.00 21 1008.5
20260903151515 80 136 7.0 14.0 0.00 0.00 0.00 21 1008.6
20260903150031 80 114 5.0 11.0 0.00 0.00 0.00 22 1008.6
20260903144510 79 103 5.0 13.0 0.00 0.00 0.00 23 1008.6
20260903143013 78 98 7.0 12.0 0.00 0.00 0.00 24 1008.4
20260903141505 77 108 6.0 11.0 0.00 0.00 0.00 25 1008.2
20260903140006 77 105 4.0 11.0 0.00 0.00 0.00 26 1008.0
20260903134510 0 0.0 0.0 0.00 0.00 0.00 1007.9
20260903133004 0 0.0 0.0 0.00 0.00 0.00 1007.6
20260903131502 0 0.0 0.0 0.00 0.00 0.00 1007.6
20260903130059 74 101 3.0 7.0 0.00 0.00 0.00 33 1007.5
20260903124602 74 130 4.0 9.0 0.00 0.00 0.00 33 1007.5
20260903123055 75 110 4.0 10.0 0.00 0.00 0.00 34 1007.3
20260903121553 75 105 5.0 9.0 0.00 0.00 0.00 35 1007.3
20260903120054 74 112 3.0 8.0 0.00 0.00 0.00 37 1007.3
20260903114550 75 101 3.0 9.0 0.00 0.00 0.00 36 1007.3
20260903113049 75 95 4.0 10.0 0.00 0.00 0.00 34 1007.3
20260903111546 76 126 6.0 11.0 0.00 0.00 0.00 31 1007.6
20260903110043 76 113 5.0 12.0 0.00 0.00 0.00 30 1007.6
20260903104549 77 113 6.0 11.0 0.00 0.00 0.00 29 1007.6
20260903103140 77 115 4.0 11.0 0.00 0.00 0.00 28 1007.6
20260903101540 77 102 3.0 14.0 0.00 0.00 0.00 28 1007.6
20260903100038 76 98 4.0 11.0 0.00 0.00 0.00 27 1007.5
20260903094541 76 104 3.0 6.0 0.00 0.00 0.00 27 1007.7
20260903093050 76 102 3.0 10.0 0.00 0.00 0.00 27 1007.7
20260903091535 76 103 4.0 8.0 0.00 0.00 0.00 27 1007.9